"Time","Temp","Dewpoint","Humidity","Pressure","Direction","Speed","Gust","Precip","PrecipRate"
"00:04:59","64.3","59.7","85.3","29.64","315","1.5","3.6","0.00","0.00"
"00:09:57","64.2","59.5","84.7","29.64","256","1.6","4.8","0.00","0.00"
"00:14:57","64.2","59","83.2","29.65","328","1.6","3.6","0.00","0.00"
"00:19:56","64.2","58.9","83","29.65","323","2.2","6","0.00","0.00"
"00:24:59","64.3","58.8","82.6","29.65","318","2.1","8.4","0.00","0.00"
"00:29:57","64.3","58.7","82","29.65","346","3.6","8.4","0.00","0.00"
"00:34:56","64.3","58.4","81.3","29.65","350","2.6","10.8","0.00","0.00"
"00:39:56","64.2","58.3","81.2","29.65","325","1.9","10.4","0.00","0.00"
"00:44:59","64.2","58","80.5","29.65","315","2.3","6","0.00","0.00"
"00:49:57","64.2","57.9","80","29.64","321","1.9","7.2","0.00","0.00"
"00:54:56","64.2","57.9","80","29.64","292","2.4","6","0.00","0.00"
"00:59:59","64.2","57.9","80","29.64","340","1.9","5.8","0.00","0.00"
"01:04:58","64","57.9","80.3","29.64","326","1.5","8.4","0.00","0.00"
"01:09:58","63.9","57.7","80.2","29.64","268","1.2","4.8","0.00","0.00"
"01:14:57","63.8","57.5","80.2","29.65","259","1.7","4.6","0.00","0.00"
"01:19:56","63.6","57.3","80","29.65","250","1.4","4.8","0.00","0.00"
"01:24:59","63.5","57.2","80.2","29.65","280","1.3","4.8","0.00","0.00"
"01:29:57","63.4","57.1","80","29.65","335","1.1","4.6","0.00","0.00"
"01:34:56","63.3","57.2","80.4","29.64","292","1.1","3.6","0.00","0.00"
"01:39:56","63.2","56.9","80","29.64","293","1.6","4.8","0.00","0.00"
"01:44:58","63.2","56.9","79.8","29.64","316","1.9","7.2","0.00","0.00"
"01:49:57","63.3","56.8","79.2","29.64","299","1.6","3.6","0.00","0.00"
"01:54:56","63.3","56.7","79","29.64","315","2.1","4.8","0.00","0.00"
"01:59:59","63.4","56.8","79","29.65","309","0.8","3.6","0.00","0.00"
"02:04:59","63.3","56.7","78.9","29.65","310","1.4","4.8","0.00","0.00"
"02:09:58","63.3","56.5","78.6","29.65","337","2","7.2","0.00","0.00"
"02:14:57","63.4","56.4","78.1","29.65","284","2.8","7.2","0.00","0.00"
"02:19:56","63.4","56.4","78","29.64","305","1.3","6","0.00","0.00"
"02:24:59","63.4","56.4","78","29.64","310","1.8","6","0.00","0.00"
"02:29:57","63.3","56.3","78","29.64","316","2.6","7.2","0.00","0.00"
"02:34:56","63.3","56.1","77.3","29.64","325","2.4","8.4","0.00","0.00"
"02:39:56","63.3","56.2","77.7","29.64","307","1.6","6.9","0.00","0.00"
"02:44:58","63.2","55.9","77","29.64","315","2.3","7.2","0.00","0.00"
"02:49:57","63.2","56","77.3","29.64","283","1.7","5.8","0.00","0.00"
"02:54:56","63","55.8","77.2","29.64","327","1.8","6","0.00","0.00"
"02:59:59","62.9","55.6","77.2","29.64","299","1.9","7.2","0.00","0.00"
"03:04:56","62.8","55.5","77","29.64","286","2.2","6","0.00","0.00"
"03:09:59","62.7","55.5","77.3","29.64","327","1.9","7.2","0.00","0.00"
"03:14:59","62.6","55.5","77.6","29.65","319","1.2","6","0.00","0.00"
"03:19:57","62.5","55.5","78","29.65","293","1.4","4.8","0.00","0.00"
"03:24:57","62.4","55.4","78","29.65","305","1.5","6","0.00","0.00"
"03:29:59","62.3","55.1","77.3","29.65","314","1.3","4.8","0.00","0.00"
"03:34:58","62.3","55.1","77.2","29.65","275","0.7","3.6","0.00","0.00"
"03:39:58","62.2","55","77.3","29.65","269","0.5","3.6","0.00","0.00"
"03:44:57","62","55.1","78","29.65","279","1","3.6","0.00","0.00"
"03:49:58","61.8","54.9","78.1","29.65","34","0.6","3.6","0.00","0.00"
"03:54:58","61.6","54.7","78","29.65","17","0.8","4.8","0.00","0.00"
"03:59:59","61.4","54.5","78","29.66","345","0.7","4.6","0.00","0.00"
"04:04:59","61.3","54.4","78","29.66","339","1","6","0.00","0.00"
"04:09:58","61.2","54.5","78.7","29.66","335","0.8","3.6","0.00","0.00"
"04:14:59","61.1","54.5","79","29.66","323","0.8","3.6","0.00","0.00"
"04:19:58","60.9","54.3","79","29.66","307","1.4","4.8","0.00","0.00"
"04:24:58","60.8","54.2","79","29.66","306","1","3.6","0.00","0.00"
"04:29:57","60.7","54.1","79","29.67","311","1.1","3.6","0.00","0.00"
"04:34:59","60.7","54.1","79","29.67","310","1.5","6","0.00","0.00"
"04:39:56","60.7","54","78.7","29.67","345","0.8","4.8","0.00","0.00"
"04:44:59","60.6","53.7","78","29.67","339","0.5","2.4","0.00","0.00"
"04:49:57","60.4","53.9","78.8","29.67","290","0.7","3.6","0.00","0.00"
"04:54:57","60.1","53.6","79","29.67","286","0.3","1.2","0.00","0.00"
"04:59:56","60","53.5","79","29.67","286","0.6","3.6","0.00","0.00"
"05:04:56","60","53.5","79","29.67","299","1.1","3.6","0.00","0.00"
"05:09:59","59.9","53.4","79","29.67","293","0.7","6","0.00","0.00"
"05:14:59","59.8","53.3","79","29.67","342","1.8","4.8","0.00","0.00"
"05:19:57","59.9","53.4","79","29.67","300","1.3","3.6","0.00","0.00"
"05:24:57","60","53.3","78.5","29.67","324","2.2","7.2","0.00","0.00"
"05:29:59","59.9","53.4","79","29.68","311","0.9","2.4","0.00","0.00"
"05:34:58","59.7","53.2","79","29.68","271","1.5","4.8","0.00","0.00"
"05:39:59","59.7","53.1","78.8","29.68","277","1.3","4.6","0.00","0.00"
"05:44:58","59.7","52.9","78.1","29.68","326","2.1","6","0.00","0.00"
"05:49:57","59.9","53","78","29.68","327","1.3","4.8","0.00","0.00"
"05:54:57","60","52.8","77.1","29.68","309","0.7","4.8","0.00","0.00"
"05:59:56","59.9","52.7","77","29.68","301","1.1","3.6","0.00","0.00"
"06:04:56","59.9","52.7","77","29.68","295","0.8","2.4","0.00","0.00"
"06:09:56","59.9","52.7","77","29.68","311","1.2","6","0.00","0.00"
"06:14:56","60","52.7","76.8","29.69","254","0.4","2.4","0.00","0.00"
"06:19:59","59.9","52.5","76.7","29.69","290","0.9","3.6","0.00","0.00"
"06:24:59","59.9","52.3","76","29.69","295","1.6","6","0.00","0.00"
"06:29:58","59.9","52.3","76","29.70","312","1.7","8.4","0.00","0.00"
"06:34:56","60","52.2","75.3","29.70","297","1.2","4.8","0.00","0.00"
"06:39:57","60.2","52.2","75","29.70","338","2","7.2","0.00","0.00"
"06:44:59","60.4","52.3","74.4","29.70","314","1.7","4.8","0.00","0.00"
"06:49:58","60.6","52.3","74","29.70","314","2.1","4.8","0.00","0.00"
"06:54:58","60.8","52.5","74.2","29.70","262","0.7","4.8","0.00","0.00"
"06:59:56","60.8","52.5","74","29.71","323","2.5","8.4","0.00","0.00"
"07:04:56","61.1","52.5","73.5","29.71","350","2.3","8.1","0.00","0.00"
"07:09:59","61.2","52.7","73.5","29.71","321","2.7","7.2","0.00","0.00"
"07:14:58","61.4","52.7","73.2","29.71","328","4.2","12","0.00","0.00"
"07:19:56","61.6","52.9","72.9","29.71","332","4.9","13.2","0.00","0.00"
"07:24:59","61.8","53","72.9","29.71","211","3.5","12.7","0.00","0.00"
"07:29:57","61.8","53","72.8","29.72","339","4.8","13.2","0.00","0.00"
"07:34:56","61.9","53.1","73","29.72","336","3.7","13.2","0.00","0.00"
"07:39:56","62","53","72.5","29.72","341","4.3","15","0.00","0.00"
"07:44:59","62","53.1","72.7","29.73","326","2.4","6.9","0.00","0.00"
"07:49:57","62.1","53.4","73.2","29.73","347","3","8.4","0.00","0.00"
"07:54:57","62.2","53.3","72.8","29.73","330","3.2","8.4","0.00","0.00"
"07:59:56","62.3","53.7","73.4","29.73","335","3.5","9.6","0.00","0.00"
"08:04:59","62.5","53.8","73.3","29.73","337","2.4","10.8","0.00","0.00"
"08:09:58","62.6","53.7","72.8","29.73","343","3.2","10.8","0.00","0.00"
"08:14:57","62.8","54","73","29.74","2","3.5","12","0.00","0.00"
"08:19:59","62.9","53.9","72.5","29.74","320","4.3","13.2","0.00","0.00"
"08:24:59","63.1","54.1","72.5","29.74","328","3.7","11.5","0.00","0.00"
"08:29:57","63.4","54.4","72.6","29.75","318","3.7","10.8","0.00","0.00"
"08:34:59","63.6","54.4","72","29.75","314","2.1","6.9","0.00","0.00"
"08:39:59","63.9","54.5","71.5","29.75","333","3.5","8.4","0.00","0.00"
"08:44:58","64.1","54.9","72.2","29.76","327","3.9","13.2","0.00","0.00"
"08:49:59","64.2","54.2","70.1","29.76","333","4.7","12.7","0.00","0.00"
"08:54:56","64.3","54.8","71.1","29.76","315","3.6","12","0.00","0.00"
"08:59:58","64.5","54.8","71","29.76","314","4","13.2","0.00","0.00"
"09:04:58","64.6","55","71.1","29.76","347","4.4","12.7","0.00","0.00"
"09:09:57","64.7","55.1","70.9","29.76","309","3.6","10.8","0.00","0.00"
"09:14:56","65","55.4","71","29.77","344","3.8","8.4","0.00","0.00"
"09:19:59","65.2","55.2","70.2","29.77","334","5.9","16.1","0.00","0.00"
"09:24:58","65.1","54.9","69.5","29.77","335","7","18.4","0.00","0.00"
"09:29:57","65.2","54.8","69.1","29.77","336","5.4","18.4","0.00","0.00"
"09:34:59","65.4","55.5","70.2","29.77","326","3.3","7.2","0.00","0.00"
"09:39:56","65.8","55.7","70.1","29.77","252","4","15.6","0.00","0.00"
"09:44:58","66","55.6","69.1","29.77","312","4.7","16.1","0.00","0.00"
"09:49:56","66.4","56","69.4","29.77","337","4","12.7","0.00","0.00"
"09:54:56","66.5","55.2","67.1","29.77","327","6.4","13.2","0.00","0.00"
"09:59:59","66.4","55.3","67.4","29.78","326","5.4","13.2","0.00","0.00"
"10:04:59","66.6","55.4","67.3","29.78","345","6.1","16.1","0.00","0.00"
"10:09:58","66.8","55.7","67.6","29.78","323","5.4","16.8","0.00","0.00"
"10:14:57","66.8","55.7","67.3","29.79","343","4.7","17.3","0.00","0.00"
"10:19:59","67","55.9","67.5","29.79","325","4.1","16.8","0.00","0.00"
"10:24:59","67.2","55.9","66.9","29.79","340","4.2","17.3","0.00","0.00"
"10:29:57","67.5","55.5","65.5","29.79","350","6.2","16.1","0.00","0.00"
"10:34:56","67.7","55.8","65.6","29.79","322","4.1","12","0.00","0.00"
"10:39:56","67.2","55.2","65.3","29.79","317","4.5","12","0.00","0.00"
"10:44:59","66.9","55.1","65.8","29.79","338","5.8","13.2","0.00","0.00"
"10:49:58","67.3","55.7","66.2","29.79","339","5","13.2","0.00","0.00"
"10:54:59","67.2","55.2","65.4","29.79","336","4","10.4","0.00","0.00"
"10:59:57","67.4","54.8","64","29.80","324","4.8","15","0.00","0.00"
"11:04:58","68.2","55.6","64.1","29.80","342","4.1","13.2","0.00","0.00"
"11:09:57","69.1","55.2","61.2","29.80","1","4.6","12.7","0.00","0.00"
"11:14:56","69","55.2","61.5","29.80","338","5.5","16.1","0.00","0.00"
"11:19:57","69.1","54.6","60","29.80","330","5.5","16.1","0.00","0.00"
"11:24:59","68.9","54.9","61.1","29.80","292","4.4","15","0.00","0.00"
"11:29:57","68.8","54.2","59.8","29.81","334","4.6","17.3","0.00","0.00"
"11:34:58","68.6","53.7","59.1","29.81","322","6.8","16.1","0.00","0.00"
"11:39:58","68.7","54.4","60.3","29.81","321","5.4","14.4","0.00","0.00"
"11:44:56","69.8","55.2","59.8","29.81","329","4.3","15","0.00","0.00"
"11:49:57","70.4","55.6","59.4","29.81","355","4.8","18.4","0.00","0.00"
"11:54:56","70.3","55.6","59.7","29.81","354","5","18.4","0.00","0.00"
"11:59:57","70.2","55.7","60","29.82","344","5.1","12","0.00","0.00"
"12:04:56","71.2","56.7","60.3","29.82","344","4.1","11.5","0.00","0.00"
"12:09:56","71.9","56.5","58.6","29.82","337","4","13.2","0.00","0.00"
"12:14:58","71.2","55.8","58.4","29.82","330","3.7","12.7","0.00","0.00"
"12:19:56","69.5","54.9","59.9","29.82","118","2.5","13.2","0.00","0.00"
"12:24:58","69.7","56.4","62.7","29.82","334","2.9","8.4","0.00","0.00"
"12:29:56","71.2","55.5","57.8","29.82","339","3.9","15.6","0.00","0.00"
"12:34:58","71.4","54.8","55.8","29.82","345","5.7","16.1","0.00","0.00"
"12:39:57","71.6","54.8","55.4","29.82","354","2.7","16.1","0.00","0.00"
"12:44:59","71.5","54","54.2","29.82","349","3.8","10.8","0.00","0.00"
"12:49:56","71.5","54","53.9","29.82","347","5.2","15","0.00","0.00"
"12:54:59","70.7","52.5","52.6","29.82","347","5.4","13.2","0.00","0.00"
"12:59:57","70.1","53","54.6","29.82","357","3.2","12.7","0.00","0.00"
"13:04:56","70.6","53.5","54.7","29.82","341","2.7","7.2","0.00","0.00"
"13:09:56","72","53.8","52.7","29.82","5","6","17.3","0.00","0.00"
"13:14:59","72","52","49.4","29.83","345","5.7","15","0.00","0.00"
"13:19:56","71.4","51.2","48.9","29.83","7","4.6","11.5","0.00","0.00"
"13:24:59","71.7","53.1","51.9","29.83","339","2.4","10.4","0.00","0.00"
"13:29:57","72.1","54.1","53.2","29.83","349","4.1","10.8","0.00","0.00"
"13:34:59","72.3","52.8","50.5","29.83","266","3.4","16.1","0.00","0.00"
"13:39:58","72.3","52.7","50.2","29.83","286","3.7","8.4","0.00","0.00"
"13:44:56","72.7","53.3","50.7","29.83","350","5.4","16.1","0.00","0.00"
"13:49:58","71.8","52","49.7","29.83","331","4","13.2","0.00","0.00"
"13:54:56","71.6","51.7","49.5","29.83","347","4.5","15","0.00","0.00"
"13:59:58","71.8","53.2","52","29.83","350","2","6.9","0.00","0.00"
"14:04:57","72.9","53","49.7","29.83","342","3.5","13.2","0.00","0.00"
"14:09:59","72.6","51.9","48.2","29.83","343","4","10.8","0.00","0.00"
"14:14:58","72.7","53.1","50.3","29.83","6","2.7","8.4","0.00","0.00"
"14:19:59","72.9","52.7","49","29.83","346","3.8","13.2","0.00","0.00"
"14:24:58","72.4","51.8","48.4","29.83","332","4.8","13.2","0.00","0.00"
"14:29:56","72.3","52.3","49.5","29.84","28","3","12","0.00","0.00"
"14:34:57","71.9","50.1","46.1","29.84","323","4.7","12","0.00","0.00"
"14:39:57","72.5","51.9","48.5","29.84","352","4.7","16.8","0.00","0.00"
"14:44:59","72.4","51.6","48.2","29.84","228","1.3","3.6","0.00","0.00"
"14:49:56","72.8","52","48.2","29.84","98","2.5","12","0.00","0.00"
"14:54:59","72.8","51","46.2","29.84","334","4.2","13.2","0.00","0.00"
"14:59:56","73.1","51.2","46.3","29.84","333","3.4","12.7","0.00","0.00"
"15:04:56","73.4","51","45.3","29.84","335","3.4","7.2","0.00","0.00"
"15:09:59","73.8","50.2","43.5","29.84","327","3.2","9.6","0.00","0.00"
"15:14:57","73","49.6","43.6","29.84","336","3.7","15","0.00","0.00"
"15:19:58","72.8","48.8","42.8","29.84","324","4.3","10.8","0.00","0.00"
"15:24:57","72.7","49.1","43.4","29.84","339","3.7","10.8","0.00","0.00"
"15:29:59","72.9","48.5","42.2","29.84","333","3.8","9.6","0.00","0.00"
"15:34:56","73","50.4","45.1","29.84","8","1.7","3.6","0.00","0.00"
"15:39:59","72.8","50.1","45","29.84","357","2.3","7.2","0.00","0.00"
"15:44:57","72.8","48.8","42.7","29.84","19","2.1","8.4","0.00","0.00"
"15:49:58","73.2","49.8","43.6","29.84","353","3","8.4","0.00","0.00"
"15:54:57","73.4","48.8","41.8","29.84","345","2.4","8.4","0.00","0.00"
"15:59:56","73.5","49.8","43.5","29.85","7","2","7.2","0.00","0.00"
"16:04:56","73.4","49.7","43.3","29.85","338","2.7","7.2","0.00","0.00"
"16:09:59","73.5","47.5","39.8","29.85","328","3.2","10.8","0.00","0.00"
"16:14:58","73.4","48.2","41","29.85","3","1.2","4.8","0.00","0.00"
"16:19:57","73.5","47.5","39.8","29.85","8","4.1","15.6","0.00","0.00"
"16:24:56","73.3","47.2","39.6","29.85","326","4.6","12","0.00","0.00"
"16:29:56","72.7","45.8","38.3","29.85","330","3.5","11.5","0.00","0.00"
"16:34:59","73.1","48.7","42.2","29.85","348","2.1","6","0.00","0.00"
"16:39:56","73.3","48.8","42","29.85","319","1.6","6","0.00","0.00"
"16:44:59","73.8","49.1","41.7","29.85","352","3.3","8.4","0.00","0.00"
"16:49:57","73.6","47.9","40.1","29.85","10","1.7","6","0.00","0.00"
"16:54:57","73.1","47.1","39.6","29.85","338","2.9","12","0.00","0.00"
"16:59:56","73.4","48.2","41","29.85","319","2.2","8.1","0.00","0.00"
"17:04:56","73.6","48.7","41.4","29.85","0","0.9","6","0.00","0.00"
"17:09:59","73.3","47.7","40.3","29.85","27","1.6","4.8","0.00","0.00"
"17:14:58","73.2","46.8","39","29.86","330","3.7","10.8","0.00","0.00"
"17:19:57","73.4","47.1","39.2","29.86","358","2.3","4.8","0.00","0.00"
"17:24:56","73.1","47.5","40.3","29.86","358","2.4","8.4","0.00","0.00"
"17:29:59","72.9","46.9","39.7","29.87","351","3.3","8.4","0.00","0.00"
"17:34:57","72.5","46.5","39.6","29.87","345","2.6","8.4","0.00","0.00"
"17:39:58","72.2","47","40.8","29.87","357","1.5","4.8","0.00","0.00"
"17:44:57","72.1","46.4","40","29.87","340","2","6","0.00","0.00"
"17:49:59","71.6","45","38.5","29.87","25","2.5","12","0.00","0.00"
"17:54:59","71.6","46","40.2","29.87","5","1.7","7.2","0.00","0.00"
"17:59:58","71.8","45.9","39.6","29.87","329","2.1","6","0.00","0.00"
"18:04:58","72","47","41.1","29.87","317","0.8","3.6","0.00","0.00"
"18:09:57","71.7","46.3","40.3","29.87","317","0.4","4.8","0.00","0.00"
"18:14:56","71.4","44.9","38.8","29.87","339","3","8.4","0.00","0.00"
"18:19:59","71.1","45.4","39.7","29.87","342","1.2","8.1","0.00","0.00"
"18:24:59","70.9","45.9","40.7","29.87","330","1.2","6","0.00","0.00"
"18:29:58","70.8","45.9","41","29.87","327","1.4","4.8","0.00","0.00"
"18:34:56","70.5","44.6","39.4","29.87","316","0.9","4.6","0.00","0.00"
"18:39:57","70.4","44.6","39.6","29.87","359","2.2","7.2","0.00","0.00"
"18:44:56","70.2","45.4","41","29.88","345","1.4","4.6","0.00","0.00"
"18:49:59","70","45.3","41.2","29.88","343","1","3.6","0.00","0.00"
"18:54:59","69.6","45.1","41.4","29.88","340","0.5","3.5","0.00","0.00"
"18:59:58","69.3","45.7","42.8","29.89","340","0.8","3.6","0.00","0.00"
"19:04:58","69","45.8","43.4","29.89","340","0.4","2.4","0.00","0.00"
"19:09:57","68.8","46.1","44.1","29.89","344","0.5","2.4","0.00","0.00"
"19:14:57","68.6","46.4","45","29.89","348","0.9","2.4","0.00","0.00"
"19:19:56","68.2","47.2","46.9","29.89","348","0.6","2.4","0.00","0.00"
"19:24:56","67.9","47","47.3","29.89","348","0.6","3.6","0.00","0.00"
"19:29:59","67.6","46.3","46.5","29.90","4","0.2","1.2","0.00","0.00"
"19:34:58","67.4","46.2","46.5","29.90","11","0.5","2.4","0.00","0.00"
"19:39:58","67.2","46.3","47","29.90","11","0.1","1.2","0.00","0.00"
"19:44:57","67","46.5","47.7","29.91","11","0.3","1.2","0.00","0.00"
"19:49:56","66.8","46.1","47.3","29.91","11","0.1","1.2","0.00","0.00"
"19:54:57","66.5","45.6","47","29.91","11","0.1","1.2","0.00","0.00"
"19:59:57","66.2","46.3","48.7","29.91","11","0.2","1.2","0.00","0.00"
"20:04:57","65.8","46.3","49.3","29.91","11","0.3","1.2","0.00","0.00"
"20:09:58","65.4","46.3","50","29.91","11","0.7","2.4","0.00","0.00"
"20:14:59","65","46","50.2","29.92","11","0.3","1.2","0.00","0.00"
"20:19:58","64.6","45.9","50.6","29.92","11","0","0","0.00","0.00"
"20:24:58","64.2","46.8","53.2","29.92","11","0","1.2","0.00","0.00"
"20:29:57","63.5","46.4","53.7","29.93","359","0.6","2.4","0.00","0.00"
"20:34:57","63","46","53.8","29.93","271","0.1","1.2","0.00","0.00"
"20:39:57","62.5","45.7","54.2","29.93","271","0.3","1.2","0.00","0.00"
"20:44:57","62.1","45.4","54.5","29.94","271","1","2.4","0.00","0.00"
"20:49:56","61.7","45.6","55.5","29.94","271","0.8","2.4","0.00","0.00"
"20:54:59","61.4","45.7","56.1","29.94","310","1","4.8","0.00","0.00"
"20:59:59","61.3","45.2","55.5","29.95","325","1","3.6","0.00","0.00"
"21:04:56","61.2","44.9","55","29.95","326","0.8","2.4","0.00","0.00"
"21:09:56","61.1","44.9","55.2","29.95","326","0.6","2.4","0.00","0.00"
"21:14:56","60.9","44.8","55.4","29.96","326","0.4","2.4","0.00","0.00"
"21:19:59","60.8","44.7","55.5","29.96","330","0.6","3.6","0.00","0.00"
"21:24:59","60.7","44.6","55.5","29.96","343","0.6","2.4","0.00","0.00"
"21:29:58","60.7","44.7","55.6","29.98","10","0.4","2.4","0.00","0.00"
"21:34:57","60.5","44.7","55.9","29.98","11","0.3","1.2","0.00","0.00"
"21:39:57","60.3","44.4","55.8","29.98","9","0.5","2.4","0.00","0.00"
"21:44:57","60.1","44.4","56.2","29.99","9","0","1.2","0.00","0.00"
"21:49:56","59.9","44.1","55.8","29.99","9","0.1","1.2","0.00","0.00"
"21:54:56","59.7","44.1","56.2","29.99","9","0.2","1.2","0.00","0.00"
"21:59:56","59.5","43.8","56.2","30.00","9","0.1","1.2","0.00","0.00"
"22:04:56","59.3","43.5","55.8","30.00","9","0.2","1.2","0.00","0.00"
"22:09:56","59.1","43.5","56.2","30.00","351","0.2","1.2","0.00","0.00"
"22:14:58","58.9","42.8","55.2","30.01","305","0.2","2.4","0.00","0.00"
"22:19:59","58.7","42.9","55.6","30.01","306","0","2.4","0.00","0.00"
"22:24:58","58.6","42.6","55.5","30.01","306","0.4","2.3","0.00","0.00"
"22:29:58","58.4","41.7","53.9","30.01","317","0.5","2.4","0.00","0.00"
"22:34:57","58.4","41","52.5","30.01","326","0.7","2.4","0.00","0.00"
"22:39:58","58.4","40.5","51.3","30.01","339","0.2","1.2","0.00","0.00"
"22:44:58","58.3","40.8","52.1","30.03","339","0.2","1.2","0.00","0.00"
"22:49:57","58.1","40.9","52.8","30.03","339","0.2","1.2","0.00","0.00"
"22:54:56","57.7","40.8","53.2","30.03","339","0.3","2.4","0.00","0.00"
"22:59:59","57.3","41.3","55.2","30.04","339","0.1","1.2","0.00","0.00"
"23:04:57","56.8","41.5","56.7","30.04","339","0.3","1.2","0.00","0.00"
"23:09:56","56.3","40.9","56.2","30.04","339","0.8","2.4","0.00","0.00"
"23:14:56","56.1","40.6","56","30.05","339","0.2","1.2","0.00","0.00"
"23:19:56","55.8","40.6","56.6","30.05","339","0.2","1.2","0.00","0.00"
"23:24:56","55.5","40.5","57","30.05","339","0","0","0.00","0.00"
"23:29:59","55.1","40.8","58.4","30.06","339","0.1","1.2","0.00","0.00"
"23:34:59","54.7","41","59.9","30.06","339","0","1.2","0.00","0.00"
"23:39:59","54.2","41.1","61.2","30.06","339","0","1.2","0.00","0.00"
"23:44:59","53.8","41.3","62.5","30.07","339","0","0","0.00","0.00"
"23:49:54","53.3","41.5","64.2","30.07","339","0","1.2","0.00","0.00"
